Location: Unspecified
(0.0000°N, 0.0000°E)
Time: 17:33:25
(UTC+01:00)

Ariane H10+ - Visible Passes

Search period start: 03 March 2015 00:00
Search period end: 13 March 2015 00:00
Orbit: 319 x 31753 km, 6.9° (Epoch: 02 March)

Date Brightness Start Highest point End Pass type
(mag) Time Alt. Az. Time Alt. Az. Time Alt. Az.
03 Mar 6.3 05:18:46 22° W 13:03:57 61° N 13:09:25 10° ENE visible
03 Mar 7.5 22:46:40 10° W 23:01:57 76° S 07:22:07 10° E visible
05 Mar 7.6 03:44:52 51° WSW 11:17:28 73° N 11:28:13 10° ENE visible
05 Mar 6.1 21:04:58 10° W 21:12:17 74° S 05:30:02 10° E visible
07 Mar 8.4 01:08:28 10° W 09:21:27 81° N 09:45:48 10° ENE visible
07 Mar 4.5 19:23:39 10° W 19:27:25 74° S 19:49:15 10° E visible
08 Mar 5.7 06:02:17 13° W 13:42:04 54° N 13:46:03 10° ENE visible
08 Mar 8.0 23:23:55 10° W 00:36:28 63° ESE 08:01:10 10° E visible
10 Mar 7.0 04:27:50 40° W 11:56:39 68° N 12:04:21 10° ENE visible
10 Mar 6.8 21:40:59 10° W 21:51:15 74° S 06:12:07 10° E visible
12 Mar 8.3 01:46:27 10° W 10:05:36 77° N 10:21:44 10° ENE visible
12 Mar 5.3 19:58:42 10° W 20:03:50 70° S 20:28:33 19° E visible
12 Mar 5.3 19:58:42 10° W 20:03:50 70° S 20:28:35 19° E visible
12 Mar 5.3 19:58:43 10° W 20:03:50 70° S 20:28:35 19° E visible
12 Mar 5.3 19:58:43 10° W 20:03:50 70° S 20:28:32 19° E visible
12 Mar 5.3 19:58:43 10° W 20:03:50 70° S 20:28:36 19° E visible
